Time,TemperatureF,DewpointF,PressureIn,WindDirection,WindDirectionDegrees,WindSpeedMPH,WindSpeedGustMPH,Humidity,HourlyPrecipIn,Conditions,Clouds,dailyrainin,SoftwareType,DateUTC
2013-03-18 00:03:00,32.5,31.0,29.99,ENE,70,3.0,6.0,93,0.06,,,0.00,weatherlink.com 1.10,2013-03-18 04:03:00,
2013-03-18 00:22:00,32.4,31.0,29.98,NE,56,3.0,7.0,93,0.12,,,0.07,weatherlink.com 1.10,2013-03-18 04:22:00,
2013-03-18 00:40:00,32.3,31.0,29.96,East,91,4.0,7.0,94,0.22,,,0.20,weatherlink.com 1.10,2013-03-18 04:40:00,
2013-03-18 00:58:00,32.3,31.0,29.96,ENE,73,1.0,4.0,94,0.34,,,0.33,weatherlink.com 1.10,2013-03-18 04:58:00,
2013-03-18 01:15:00,32.3,31.0,29.95,NNE,22,2.0,5.0,94,0.36,,,0.40,weatherlink.com 1.10,2013-03-18 05:15:00,
2013-03-18 01:33:00,32.3,31.0,29.93,NNW,330,2.0,7.0,95,0.30,,,0.45,weatherlink.com 1.10,2013-03-18 05:33:00,
2013-03-18 01:51:00,32.4,31.0,29.94,South,181,2.0,5.0,95,0.20,,,0.49,weatherlink.com 1.10,2013-03-18 05:51:00,
2013-03-18 02:08:00,32.5,31.0,29.92,ESE,105,3.0,5.0,95,0.15,,,0.53,weatherlink.com 1.10,2013-03-18 06:08:00,
2013-03-18 02:26:00,32.5,31.0,29.91,ENE,62,3.0,7.0,95,0.12,,,0.56,weatherlink.com 1.10,2013-03-18 06:26:00,
2013-03-18 02:44:00,32.6,31.0,29.89,SE,131,3.0,9.0,95,0.10,,,0.58,weatherlink.com 1.10,2013-03-18 06:44:00,
2013-03-18 03:02:00,32.7,32.0,29.87,NE,45,4.0,8.0,95,0.10,,,0.62,weatherlink.com 1.10,2013-03-18 07:02:00,
2013-03-18 03:19:00,32.9,32.0,29.87,ENE,73,4.0,8.0,95,0.13,,,0.67,weatherlink.com 1.10,2013-03-18 07:19:00,
2013-03-18 03:37:00,33.2,32.0,29.87,ESE,105,4.0,8.0,95,0.12,,,0.70,weatherlink.com 1.10,2013-03-18 07:37:00,
2013-03-18 03:56:00,33.4,32.0,29.86,ENE,75,2.0,6.0,95,0.14,,,0.74,weatherlink.com 1.10,2013-03-18 07:56:00,
2013-03-18 04:14:00,33.7,33.0,29.84,East,84,2.0,5.0,95,0.10,,,0.75,weatherlink.com 1.10,2013-03-18 08:14:00,
2013-03-18 04:30:00,33.9,33.0,29.81,East,84,2.0,5.0,95,0.10,,,0.79,weatherlink.com 1.10,2013-03-18 08:30:00,
2013-03-18 04:49:00,34.1,33.0,29.82,NE,50,2.0,3.0,96,0.12,,,0.84,weatherlink.com 1.10,2013-03-18 08:49:00,
2013-03-18 05:07:00,34.0,33.0,29.81,East,88,2.0,2.0,96,0.09,,,0.84,weatherlink.com 1.10,2013-03-18 09:07:00,
2013-03-18 05:24:00,34.0,33.0,29.78,ENE,77,1.0,4.0,96,0.07,,,0.85,weatherlink.com 1.10,2013-03-18 09:24:00,
2013-03-18 05:42:00,34.0,33.0,29.78,NE,55,2.0,5.0,96,0.02,,,0.85,weatherlink.com 1.10,2013-03-18 09:42:00,
2013-03-18 06:00:00,34.1,33.0,29.78,East,83,2.0,3.0,96,0.01,,,0.85,weatherlink.com 1.10,2013-03-18 10:00:00,
2013-03-18 06:18:00,34.2,33.0,29.78,ENE,73,3.0,3.0,96,0.00,,,0.85,weatherlink.com 1.10,2013-03-18 10:18:00,
2013-03-18 06:36:00,34.3,33.0,29.76,NE,53,2.0,4.0,96,0.01,,,0.86,weatherlink.com 1.10,2013-03-18 10:36:00,
2013-03-18 06:53:00,34.3,33.0,29.76,ENE,76,2.0,4.0,96,0.01,,,0.86,weatherlink.com 1.10,2013-03-18 10:53:00,
2013-03-18 07:11:00,34.3,33.0,29.76,East,95,1.0,3.0,96,0.01,,,0.86,weatherlink.com 1.10,2013-03-18 11:11:00,
2013-03-18 07:29:00,34.4,33.0,29.75,ENE,78,1.0,4.0,96,0.00,,,0.86,weatherlink.com 1.10,2013-03-18 11:29:00,
2013-03-18 07:46:00,34.5,34.0,29.74,ENE,68,2.0,7.0,96,0.01,,,0.87,weatherlink.com 1.10,2013-03-18 11:46:00,
2013-03-18 08:05:00,34.5,34.0,29.73,East,86,2.0,4.0,96,0.01,,,0.87,weatherlink.com 1.10,2013-03-18 12:05:00,
2013-03-18 08:23:00,34.6,34.0,29.73,ENE,61,1.0,4.0,96,0.01,,,0.87,weatherlink.com 1.10,2013-03-18 12:23:00,
2013-03-18 08:40:00,34.7,34.0,29.73,East,101,1.0,3.0,96,0.01,,,0.87,weatherlink.com 1.10,2013-03-18 12:40:00,
2013-03-18 08:58:00,34.8,34.0,29.72,ENE,57,1.0,2.0,96,0.00,,,0.87,weatherlink.com 1.10,2013-03-18 12:58:00,
2013-03-18 09:16:00,34.8,34.0,29.73,NE,39,1.0,3.0,96,0.01,,,0.88,weatherlink.com 1.10,2013-03-18 13:16:00,
2013-03-18 09:33:00,34.9,34.0,29.71,East,88,0.0,3.0,96,0.01,,,0.88,weatherlink.com 1.10,2013-03-18 13:33:00,
2013-03-18 09:51:00,35.0,34.0,29.71,ENE,77,2.0,3.0,96,0.01,,,0.88,weatherlink.com 1.10,2013-03-18 13:51:00,
2013-03-18 10:09:00,35.2,34.0,29.70,ESE,105,1.0,2.0,96,0.01,,,0.88,weatherlink.com 1.10,2013-03-18 14:09:00,
2013-03-18 10:26:00,35.5,35.0,29.71,East,82,0.0,2.0,96,0.01,,,0.89,weatherlink.com 1.10,2013-03-18 14:26:00,
2013-03-18 10:44:00,35.8,35.0,29.70,East,79,1.0,2.0,96,0.01,,,0.89,weatherlink.com 1.10,2013-03-18 14:44:00,
2013-03-18 11:03:00,36.2,35.0,29.70,ENE,77,0.0,2.0,96,0.01,,,0.89,weatherlink.com 1.10,2013-03-18 15:03:00,
2013-03-18 11:21:00,36.8,36.0,29.70,East,92,0.0,2.0,97,0.01,,,0.89,weatherlink.com 1.10,2013-03-18 15:21:00,
2013-03-18 11:37:00,37.4,37.0,29.70,SW,226,1.0,3.0,97,0.00,,,0.89,weatherlink.com 1.10,2013-03-18 15:37:00,
2013-03-18 11:56:00,38.3,38.0,29.70,SW,225,0.0,1.0,97,0.00,,,0.89,weatherlink.com 1.10,2013-03-18 15:56:00,
2013-03-18 12:14:00,38.7,38.0,29.70,ENE,75,0.0,1.0,97,0.00,,,0.89,weatherlink.com 1.10,2013-03-18 16:14:00,
2013-03-18 12:32:00,39.6,39.0,29.70,SW,221,2.0,5.0,97,0.00,,,0.89,weatherlink.com 1.10,2013-03-18 16:32:00,
2013-03-18 12:49:00,40.4,40.0,29.70,SW,224,2.0,5.0,97,0.01,,,0.90,weatherlink.com 1.10,2013-03-18 16:49:00,
2013-03-18 13:07:00,41.5,41.0,29.69,SW,226,3.0,4.0,97,0.01,,,0.90,weatherlink.com 1.10,2013-03-18 17:07:00,
2013-03-18 13:25:00,42.6,42.0,29.68,ENE,60,1.0,4.0,97,0.01,,,0.90,weatherlink.com 1.10,2013-03-18 17:25:00,
2013-03-18 13:42:00,42.6,42.0,29.67,WSW,244,3.0,10.0,97,0.00,,,0.90,weatherlink.com 1.10,2013-03-18 17:42:00,
2013-03-18 14:00:00,43.0,42.0,29.66,SW,217,3.0,6.0,96,0.00,,,0.90,weatherlink.com 1.10,2013-03-18 18:00:00,
2013-03-18 14:18:00,43.2,42.0,29.68,SW,221,4.0,8.0,95,0.00,,,0.90,weatherlink.com 1.10,2013-03-18 18:18:00,
2013-03-18 14:35:00,43.4,42.0,29.70,NW,318,4.0,9.0,95,0.00,,,0.90,weatherlink.com 1.10,2013-03-18 18:35:00,
2013-03-18 14:54:00,43.3,42.0,29.71,WSW,239,2.0,14.0,94,0.00,,,0.90,weatherlink.com 1.10,2013-03-18 18:54:00,
2013-03-18 15:12:00,43.0,41.0,29.70,WSW,243,3.0,10.0,94,0.00,,,0.90,weatherlink.com 1.10,2013-03-18 19:12:00,
2013-03-18 15:29:00,42.7,41.0,29.69,SSW,207,3.0,7.0,94,0.00,,,0.90,weatherlink.com 1.10,2013-03-18 19:29:00,
2013-03-18 15:47:00,42.7,41.0,29.69,WSW,248,3.0,7.0,94,0.00,,,0.90,weatherlink.com 1.10,2013-03-18 19:47:00,
2013-03-18 16:05:00,42.4,41.0,29.69,West,269,5.0,8.0,93,0.00,,,0.90,weatherlink.com 1.10,2013-03-18 20:05:00,
2013-03-18 16:22:00,42.1,40.0,29.70,WSW,248,5.0,8.0,93,0.00,,,0.90,weatherlink.com 1.10,2013-03-18 20:22:00,
2013-03-18 16:40:00,42.0,40.0,29.71,SW,218,3.0,5.0,93,0.00,,,0.90,weatherlink.com 1.10,2013-03-18 20:40:00,
2013-03-18 16:58:00,41.7,39.0,29.72,SSW,194,3.0,16.0,91,0.00,,,0.90,weatherlink.com 1.10,2013-03-18 20:58:00,
2013-03-18 17:16:00,41.4,39.0,29.74,WSW,245,3.0,8.0,92,0.00,,,0.90,weatherlink.com 1.10,2013-03-18 21:16:00,
2013-03-18 17:34:00,41.2,39.0,29.74,SSW,200,5.0,9.0,90,0.00,,,0.90,weatherlink.com 1.10,2013-03-18 21:34:00,
2013-03-18 18:09:00,40.6,38.0,29.76,West,269,6.0,12.0,89,0.00,,,0.90,weatherlink.com 1.10,2013-03-18 22:09:00,
2013-03-18 18:27:00,40.0,37.0,29.77,SW,218,1.0,11.0,90,0.00,,,0.90,weatherlink.com 1.10,2013-03-18 22:27:00,
2013-03-18 18:45:00,39.7,37.0,29.78,WSW,256,2.0,9.0,91,0.00,,,0.90,weatherlink.com 1.10,2013-03-18 22:45:00,
2013-03-18 19:02:00,39.5,37.0,29.80,West,266,1.0,8.0,91,0.00,,,0.90,weatherlink.com 1.10,2013-03-18 23:02:00,
2013-03-18 19:20:00,39.2,37.0,29.82,West,260,3.0,11.0,90,0.00,,,0.90,weatherlink.com 1.10,2013-03-18 23:20:00,
2013-03-18 19:38:00,38.7,36.0,29.83,SSW,212,4.0,8.0,91,0.00,,,0.90,weatherlink.com 1.10,2013-03-18 23:38:00,
2013-03-18 19:56:00,38.3,36.0,29.84,ENE,65,1.0,6.0,92,0.00,,,0.90,weatherlink.com 1.10,2013-03-18 23:56:00,
2013-03-18 20:13:00,38.0,36.0,29.84,WSW,239,1.0,6.0,93,0.00,,,0.90,weatherlink.com 1.10,2013-03-19 00:13:00,
2013-03-18 20:49:00,37.7,35.0,29.85,WSW,238,2.0,5.0,91,0.00,,,0.90,weatherlink.com 1.10,2013-03-19 00:49:00,
2013-03-18 21:24:00,37.9,35.0,29.86,WSW,242,0.0,9.0,90,0.00,,,0.90,weatherlink.com 1.10,2013-03-19 01:24:00,
2013-03-18 21:42:00,37.8,35.0,29.86,West,259,2.0,5.0,90,0.00,,,0.90,weatherlink.com 1.10,2013-03-19 01:42:00,
2013-03-18 22:00:00,37.5,35.0,29.87,WNW,294,1.0,8.0,90,0.00,,,0.90,weatherlink.com 1.10,2013-03-19 02:00:00,
2013-03-18 22:17:00,37.1,35.0,29.88,SW,224,3.0,6.0,90,0.00,,,0.90,weatherlink.com 1.10,2013-03-19 02:17:00,
2013-03-18 22:35:00,36.6,34.0,29.88,WSW,252,0.0,4.0,91,0.00,,,0.90,weatherlink.com 1.10,2013-03-19 02:35:00,
2013-03-18 22:53:00,36.4,34.0,29.89,SW,222,1.0,3.0,92,0.00,,,0.90,weatherlink.com 1.10,2013-03-19 02:53:00,
2013-03-18 23:10:00,36.3,34.0,29.89,SW,215,1.0,3.0,92,0.00,,,0.90,weatherlink.com 1.10,2013-03-19 03:10:00,
2013-03-18 23:28:00,36.4,34.0,29.89,SW,217,4.0,5.0,92,0.00,,,0.90,weatherlink.com 1.10,2013-03-19 03:28:00,
2013-03-18 23:47:00,36.4,34.0,29.90,WSW,238,2.0,3.0,92,0.00,,,0.90,weatherlink.com 1.10,2013-03-19 03:47:00,